STARLINK-1279, 45360

Orbit data source: Space-Track

STARLINK-1279, 45360 is a payload satellite owned by SpaceX/Seattle (US) in LEO that was launched on Wed, 18 Mar 2020 UTC via an FALCON 9 launch vehicle from the Air Force Eastern Test Range (AFETR). Payloads include a variety of satellites, spacecraft, and rockets equipped with specific instruments for various scientific and technological missions. These include communications satellites like Starlink; space stations such as the ISS; scientific satellites like the Hubble; Earth observation satellites from companies like Planet Labs, Umbra, and HawkEye 360; GPS; miniature CubeSats for education and research; and military/defense satellites.

Loading next visibility...
STARLINK-1279 details
Identifier
45360, 2020-019A
Orbit
LEO
Last TLE update20 hours ago
Origin
Flag of USSpaceX/Seattle (US)
ManufacturerSpaceX/Seattle
MissionOperational Commercial Communications
Bus & MotorSTARLINK, Unknown motor
Mass260 kg wet, ~248 kg dry
Launch date (UTC)
2020-03-18 (5 years ago)
Launch vehicle
FALCON 9
Launch site
Air Force Eastern Test Range (AFETR)
Object type
Payload
Rocket body
Debris
Shape & HBRBox + 1 Pan, 8.86 m
Radar Cross Section13.562 m², Large (>1 m²)

Expand to show TLE details & history

TLE from 20 hours ago
0 STARLINK-1279
1 45360U 20019A   24360.58887638  .00029672  00000-0  20031-2 0  9992
2 45360  53.0548 307.8196 0001291  83.6576 276.4560 15.06389478263953
Epoch: 2024-12-25T14:07Z
Definitive object data (Epoch: 2024-12-25T14:07:58.919Z)
Latitude-0.00001°
Longitude1.24364°
Altitude548.023 km
Speed7.589 km/s
True Right ascension20h 31m 16s
True Declination0° 00' 00"
Sunlit
Object was in daylight at TLE epoch
Visualization TLE readout
Latitude-37.84982°
Longitude-38.12345°
Altitude560.006 km
Speed7.581 km/s
Apparent Right ascension19h 48m 15s
Apparent Declination-42° 51' 52"
Sunlit
Object is in daylight
Visualization observer readout
Local Sidereal Time09:57:56
Azimuth107.612° ESE
Elevation-65.65°
Doppler factor1
Orbital elements
Apogee altitude548.409 km
Perigee altitude546.62 km
Semi-major axis6,925.651 km
Eccentricity0.0001291
Inclination53.0548°
RAAN307.8196°
Arg. of periapsis83.6576°
True anomaly276.4413°
Mean anomaly276.456°
Eccentric anomaly276.44865°
Mean motion3.76576 °/min
BSTAR0.0020031
Orbital period95.6 mins
Loading maneuver chart data...
Loading historical data...
Loading historical data...
Loading historical data...
Loading historical data...
Loading historical data...
Loading historical data...
Loading historical data...

STARLINK-1279 Visibility forecast

Observer location: undefined°, undefined

Span
Click to sort rows by Start time (UTC) header in descending order
Start Az.
Max El. time (UTC)
Max El. Az.
Max El.
End time (UTC)
End Az.
5 mins2024-12-26 22:07:43.550Z175.563° S2024-12-26 22:10:43.550Z121.539° SE20.7°2024-12-26 22:12:43.550Z86.186° E
6 mins2024-12-26 23:46:43.550Z252.812° W2024-12-26 23:49:43.550Z328.86° NNW37.916°2024-12-26 23:52:43.550Z38.064° NE
5 mins2024-12-27 04:49:43.550Z347.092° N2024-12-27 04:51:43.550Z35.79° NE25.656°2024-12-27 04:54:43.550Z86.933° E
6 mins2024-12-27 06:28:43.550Z291.421° WNW2024-12-27 06:30:43.550Z245.033° WSW36.412°2024-12-27 06:34:43.550Z151.463° SSE
|